Location: Camp Roosevelt
(41.7914°N, 81.1673°W)
Time: 08:27:29
(UTC+00:00)

Cosmos 1953 Rocket - Pass Details

Date: 29 October 2020
Orbit: 605 x 634 km, 82.5° (Epoch: 28 November)

Event Time Altitude Azimuth Distance (km) Brightness Sun altitude
Rises 23:02:45 0° 351° (N) 2,906 7.0 -8.2°
Reaches altitude 10° 23:04:59 10° 351° (N) 2,000 6.2 -8.6°
Maximum altitude 23:09:25 87° 266° (W) 633 3.6 -9.4°
Drops below altitude 10° 23:13:52 10° 175° (S) 2,000 6.2 -10.2°
Sets 23:16:05 0° 175° (S) 2,906 7.1 -10.6°
